N0JVW-13 Weather Reports


Display with metric or nautical units.
time (UTC)temp
F
wind
direction
speed
MPH
gust
MPH
rain 1hr
in
rain 24hr
in
rain mn
in
humidity
%
barometer
mb
20260901225026 94 124 0.0 3.0 0.00 0.00 0.00 40 1011.0
20260901224509 95 157 0.0 0.0 0.00 0.00 0.00 40 1011.1
20260901224059 95 157 0.0 0.0 0.00 0.00 0.00 39 1011.1
20260901223537 95 157 0.0 2.0 0.00 0.00 0.00 38 1011.1
20260901223018 95 162 0.0 2.0 0.00 0.00 0.00 38 1011.1
20260901222601 95 129 0.0 2.0 0.00 0.00 0.00 38 1011.1
20260901222042 95 180 0.0 3.0 0.00 0.00 0.00 38 1011.2
20260901221525 95 152 1.0 3.0 0.00 0.00 0.00 37 1011.1
20260901221105 95 110 0.0 1.0 0.00 0.00 0.00 39 1011.1
20260901220553 95 159 0.0 2.0 0.00 0.00 0.00 39 1011.1
20260901220038 96 159 0.0 3.0 0.00 0.00 0.00 37 1011.1
20260901215511 96 120 0.0 4.0 0.00 0.00 0.00 36 1011.1
20260901215053 96 173 0.0 4.0 0.00 0.00 0.00 37 1011.2
20260901214535 96 165 1.0 3.0 0.00 0.00 0.00 36 1011.1
20260901214012 96 118 1.0 3.0 0.00 0.00 0.00 37 1011.2
20260901213600 96 177 0.0 3.0 0.00 0.00 0.00 37 1011.3
20260901213037 96 115 0.0 3.0 0.00 0.00 0.00 36 1011.3
20260901212514 96 192 0.0 2.0 0.00 0.00 0.00 36 1011.4
20260901212058 96 141 0.0 2.0 0.00 0.00 0.00 37 1011.4
20260901211538 96 113 0.0 4.0 0.00 0.00 0.00 36 1011.4
20260901211017 96 151 0.0 4.0 0.00 0.00 0.00 35 1011.6
20260901210606 96 162 1.0 4.0 0.00 0.00 0.00 35 1011.5
20260901210052 96 141 1.0 4.0 0.00 0.00 0.00 36 1011.5
20260901205520 96 149 1.0 3.0 0.00 0.00 0.00 37 1011.6
20260901205102 96 149 0.0 2.0 0.00 0.00 0.00 36 1011.7
20260901204542 97 160 0.0 3.0 0.00 0.00 0.00 37 1011.7
20260901204021 97 154 1.0 3.0 0.00 0.00 0.00 37 1011.8
20260901203501 97 129 0.0 3.0 0.00 0.00 0.00 37 1011.9
20260901203045 97 262 0.0 3.0 0.00 0.00 0.00 35 1012.0
20260901202523 97 262 0.0 3.0 0.00 0.00 0.00 34 1012.0
20260901202007 97 128 0.0 5.0 0.00 0.00 0.00 37 1012.1
20260901201546 97 128 1.0 5.0 0.00 0.00 0.00 34 1012.1
20260901201027 97 158 0.0 4.0 0.00 0.00 0.00 36 1012.1
20260901200506 97 122 0.0 4.0 0.00 0.00 0.00 35 1012.2
20260901200050 97 160 1.0 3.0 0.00 0.00 0.00 35 1012.2
20260901195529 97 130 0.0 3.0 0.00 0.00 0.00 36 1012.2
20260901195008 97 115 0.0 5.0 0.00 0.00 0.00 35 1012.4
20260901194602 98 139 0.0 5.0 0.00 0.00 0.00 35 1012.4
20260901194038 97 102 1.0 3.0 0.00 0.00 0.00 36 1012.5
20260901193510 97 102 0.0 3.0 0.00 0.00 0.00 36 1012.5
20260901193103 97 102 0.0 3.0 0.00 0.00 0.00 37 1012.5
20260901192533 97 136 0.0 3.0 0.00 0.00 0.00 37 1012.6
20260901192013 97 125 0.0 3.0 0.00 0.00 0.00 36 1012.7
20260901191604 97 137 0.0 3.0 0.00 0.00 0.00 36 1012.6
20260901191040 97 131 0.0 3.0 0.00 0.00 0.00 36 1012.6
20260901190514 97 124 0.0 4.0 0.00 0.00 0.00 36 1012.6
20260901190133 97 137 1.0 4.0 0.00 0.00 0.00 36 1012.7
20260901185538 97 166 0.0 5.0 0.00 0.00 0.00 34 1012.7
20260901185018 97 134 0.0 5.0 0.00 0.00 0.00 35 1012.9
20260901184601 97 133 1.0 4.0 0.00 0.00 0.00 35 1012.9
20260901184041 97 124 1.0 3.0 0.00 0.00 0.00 36 1013.0
20260901183521 97 117 1.0 3.0 0.00 0.00 0.00 38 1013.0
20260901183108 96 162 0.0 1.0 0.00 0.00 0.00 39 1013.0
20260901182542 96 162 0.0 3.0 0.00 0.00 0.00 39 1013.1
20260901182022 96 162 0.0 3.0 0.00 0.00 0.00 40 1013.2
20260901181604 96 148 0.0 3.0 0.00 0.00 0.00 40 1013.3
20260901181044 95 106 0.0 3.0 0.00 0.00 0.00 41 1013.3
20260901180525 95 106 0.0 3.0 0.00 0.00 0.00 40 1013.3
20260901180003 95 59 0.0 2.0 0.00 0.00 0.00 38 1013.4
20260901175545 94 59 0.0 1.0 0.00 0.00 0.00 39 1013.5
20260901175026 94 59 0.0 1.0 0.00 0.00 0.00 41 1013.5
20260901174505 94 59 0.0 2.0 0.00 0.00 0.00 43 1013.5
20260901174049 94 59 0.0 2.0 0.00 0.00 0.00 41 1013.6
20260901173529 94 119 0.0 4.0 0.00 0.00 0.00 40 1013.7
20260901173007 94 173 0.0 4.0 0.00 0.00 0.00 40 1013.7
20260901172551 94 154 0.0 3.0 0.00 0.00 0.00 42 1013.7
20260901172031 94 110 0.0 4.0 0.00 0.00 0.00 43 1013.7
20260901171510 93 167 0.0 2.0 0.00 0.00 0.00 44 1013.7
20260901171054 93 109 0.0 2.0 0.00 0.00 0.00 45 1013.9
20260901170536 92 109 0.0 2.0 0.00 0.00 0.00 45 1013.9
20260901170014 92 144 0.0 0.0 0.00 0.00 0.00 47 1014.0
20260901165559 92 144 0.0 1.0 0.00 0.00 0.00 46 1014.1
20260901165036 92 164 0.0 3.0 0.00 0.00 0.00 48 1014.1
20260901164516 91 119 0.0 3.0 0.00 0.00 0.00 49 1014.1
20260901164059 91 163 0.0 2.0 0.00 0.00 0.00 49 1014.1
20260901163538 91 191 0.0 1.0 0.00 0.00 0.00 50 1014.3
20260901163035 90 117 0.0 3.0 0.00 0.00 0.00 54 1014.3
20260901162602 90 167 0.0 3.0 0.00 0.00 0.00 54 1014.4
20260901162041 89 159 0.0 2.0 0.00 0.00 0.00 53 1014.5
20260901161522 89 118 0.0 3.0 0.00 0.00 0.00 51 1014.4
20260901161002 89 118 0.0 4.0 0.00 0.00 0.00 53 1014.4
20260901160546 88 149 1.0 4.0 0.00 0.00 0.00 55 1014.4
20260901160024 88 108 0.0 2.0 0.00 0.00 0.00 56 1014.4
20260901155503 87 165 1.0 2.0 0.00 0.00 0.00 55 1014.5
20260901155049 87 134 0.0 1.0 0.00 0.00 0.00 57 1014.4
20260901154543 87 156 0.0 1.0 0.00 0.00 0.00 57 1014.4
20260901154006 86 160 0.0 2.0 0.00 0.00 0.00 60 1014.5
20260901153546 86 160 0.0 2.0 0.00 0.00 0.00 59 1014.4
20260901153036 85 145 0.0 3.0 0.00 0.00 0.00 60 1014.4
20260901152506 85 122 0.0 3.0 0.00 0.00 0.00 59 1014.4
20260901152049 84 182 0.0 2.0 0.00 0.00 0.00 61 1014.6
20260901151530 84 152 0.0 4.0 0.00 0.00 0.00 64 1014.6
20260901151008 83 152 0.0 4.0 0.00 0.00 0.00 63 1014.6
20260901150551 83 131 0.0 3.0 0.00 0.00 0.00 64 1014.6
20260901150031 82 150 0.0 3.0 0.00 0.00 0.00 65 1014.7
20260901145510 82 127 0.0 3.0 0.00 0.00 0.00 65 1014.6
20260901145055 81 169 0.0 3.0 0.00 0.00 0.00 66 1014.6
20260901144533 81 127 0.0 3.0 0.00 0.00 0.00 66 1014.7
20260901144016 80 157 0.0 2.0 0.00 0.00 0.00 68 1014.7
20260901143556 80 152 0.0 0.0 0.00 0.00 0.00 68 1014.7
20260901143036 79 152 0.0 0.0 0.00 0.00 0.00 70 1014.7
20260901142517 78 152 0.0 0.0 0.00 0.00 0.00 70 1014.8
20260901142059 78 152 0.0 0.0 0.00 0.00 0.00 71 1014.8
20260901141539 78 152 0.0 0.0 0.00 0.00 0.00 71 1014.8
20260901141019 78 133 0.0 1.0 0.00 0.00 0.00 71 1014.9
20260901140604 78 133 0.0 1.0 0.00 0.00 0.00 71 1014.9
20260901140049 77 141 0.0 1.0 0.00 0.00 0.00 71 1014.9
20260901135522 77 141 0.0 1.0 0.00 0.00 0.00 71 1014.8
20260901135003 77 155 0.0 1.0 0.00 0.00 0.00 71 1014.7
20260901134549 76 155 0.0 1.0 0.00 0.00 0.00 71 1014.8
20260901134025 76 129 0.0 1.0 0.00 0.00 0.00 71 1014.8
20260901133505 75 161 0.0 2.0 0.00 0.00 0.00 72 1014.8
20260901133101 75 161 0.0 2.0 0.00 0.00 0.00 72 1014.8
20260901132528 75 158 0.0 1.0 0.00 0.00 0.00 72 1014.7
20260901132012 74 149 0.0 1.0 0.00 0.00 0.00 72 1014.6
20260901131553 74 155 0.0 1.0 0.00 0.00 0.00 71 1014.6
20260901131030 74 155 0.0 1.0 0.00 0.00 0.00 71 1014.6
20260901130509 74 155 0.0 1.0 0.00 0.00 0.00 71 1014.6
20260901130054 73 155 0.0 1.0 0.00 0.00 0.00 71 1014.6
20260901125527 73 155 0.0 1.0 0.00 0.00 0.00 71 1014.6
20260901125006 73 143 0.0 1.0 0.00 0.00 0.00 71 1014.6
20260901124546 73 145 0.0 1.0 0.00 0.00 0.00 71 1014.6
20260901124025 73 145 0.0 0.0 0.00 0.00 0.00 71 1014.5
20260901123505 72 145 0.0 0.0 0.00 0.00 0.00 70 1014.4
20260901123049 72 147 0.0 0.0 0.00 0.00 0.00 70 1014.4
20260901122528 72 147 0.0 0.0 0.00 0.00 0.00 69 1014.4
20260901122007 72 147 0.0 0.0 0.00 0.00 0.00 69 1014.3
20260901121552 72 147 0.0 0.0 0.00 0.00 0.00 68 1014.3
20260901121027 72 147 0.0 0.0 0.00 0.00 0.00 69 1014.2
20260901120507 72 147 0.0 0.0 0.00 0.00 0.00 70 1014.1
20260901120051 72 147 0.0 0.0 0.00 0.00 0.00 70 1014.1
20260901115530 72 147 0.0 0.0 0.00 0.00 0.00 70 1014.0
20260901115009 72 147 0.0 0.0 0.00 0.00 0.00 70 1014.0
20260901114553 73 147 0.0 1.0 0.00 0.00 0.00 71 1013.9
20260901114032 73 140 0.0 1.0 0.00 0.00 0.00 72 1013.8
20260901113512 73 140 0.0 0.0 0.00 0.00 0.00 72 1013.8
20260901113053 73 140 0.0 0.0 0.00 0.00 0.00 72 1013.8
20260901112532 73 139 0.0 0.0 0.00 0.00 0.00 72 1013.7
20260901112012 73 139 0.0 0.0 0.00 0.00 0.00 72 1013.7
20260901111605 73 140 0.0 0.0 0.00 0.00 0.00 72 1013.7
20260901111034 74 140 0.0 0.0 0.00 0.00 0.00 72 1013.5
20260901110514 74 139 0.0 0.0 0.00 0.00 0.00 71 1013.5
20260901110058 74 140 0.0 0.0 0.00 0.00 0.00 71 1013.5
20260901105538 74 140 0.0 0.0 0.00 0.00 0.00 71 1013.5
20260901105019 74 140 0.0 0.0 0.00 0.00 0.00 71 1013.4
20260901104602 74 139 0.0 0.0 0.00 0.00 0.00 71 1013.3
20260901104039 74 140 0.0 0.0 0.00 0.00 0.00 71 1013.3
20260901103520 74 140 0.0 0.0 0.00 0.00 0.00 71 1013.3
20260901103103 74 140 0.0 1.0 0.00 0.00 0.00 71 1013.4
20260901102543 74 140 0.0 1.0 0.00 0.00 0.00 71 1013.4
20260901102022 74 139 0.0 0.0 0.00 0.00 0.00 70 1013.4
20260901101504 74 140 0.0 0.0 0.00 0.00 0.00 70 1013.3
20260901101046 74 139 0.0 0.0 0.00 0.00 0.00 70 1013.4
20260901100525 74 140 0.0 0.0 0.00 0.00 0.00 70 1013.2
20260901100004 75 140 0.0 0.0 0.00 0.00 0.00 70 1013.1
20260901095548 75 140 0.0 1.0 0.00 0.00 0.00 70 1013.1
20260901095027 75 140 0.0 1.0 0.00 0.00 0.00 70 1013.2
20260901094511 75 143 0.0 0.0 0.00 0.00 0.00 70 1013.1
20260901094050 74 143 0.0 0.0 0.00 0.00 0.00 70 1013.0
20260901093530 74 143 0.0 0.0 0.00 0.00 0.00 70 1013.0
20260901093009 74 143 0.0 0.0 0.00 0.00 0.00 70 1012.9
20260901092552 74 143 0.0 0.0 0.00 0.00 0.00 70 1012.8
20260901092033 74 140 0.0 0.0 0.00 0.00 0.00 70 1012.7
20260901091514 75 140 0.0 1.0 0.00 0.00 0.00 70 1012.7
20260901091056 75 140 0.0 1.0 0.00 0.00 0.00 70 1012.7
20260901090539 75 140 0.0 0.0 0.00 0.00 0.00 70 1012.7
20260901090027 75 140 0.0 0.0 0.00 0.00 0.00 70 1012.6
20260901085559 75 140 0.0 0.0 0.00 0.00 0.00 70 1012.6
20260901085039 75 140 0.0 2.0 0.00 0.00 0.00 70 1012.6
20260901084518 75 140 0.0 2.0 0.00 0.00 0.00 69 1012.6
20260901084101 75 162 0.0 2.0 0.00 0.00 0.00 69 1012.6
20260901083540 75 139 0.0 2.0 0.00 0.00 0.00 69 1012.6
20260901083022 75 157 0.0 2.0 0.00 0.00 0.00 69 1012.7
20260901082605 75 152 0.0 1.0 0.00 0.00 0.00 68 1012.7
20260901082043 75 116 0.0 0.0 0.00 0.00 0.00 68 1012.6
20260901081522 76 158 0.0 0.0 0.00 0.00 0.00 67 1012.6
20260901081002 76 158 0.0 1.0 0.00 0.00 0.00 67 1012.6
20260901080545 76 162 0.0 1.0 0.00 0.00 0.00 67 1012.6
20260901080025 76 148 0.0 1.0 0.00 0.00 0.00 67 1012.5
20260901075504 75 158 0.0 1.0 0.00 0.00 0.00 67 1012.5
20260901075048 75 151 0.0 1.0 0.00 0.00 0.00 68 1012.4
20260901074527 75 160 0.0 1.0 0.00 0.00 0.00 70 1012.5
20260901074008 74 133 0.0 0.0 0.00 0.00 0.00 70 1012.5
20260901073550 74 133 0.0 0.0 0.00 0.00 0.00 69 1012.6
20260901073030 74 133 0.0 0.0 0.00 0.00 0.00 70 1012.6
20260901072509 75 133 0.0 0.0 0.00 0.00 0.00 69 1012.6
20260901072053 75 133 0.0 0.0 0.00 0.00 0.00 69 1012.6
20260901071532 75 133 0.0 0.0 0.00 0.00 0.00 70 1012.6
20260901071012 75 133 0.0 0.0 0.00 0.00 0.00 69 1012.6
20260901070555 75 133 0.0 0.0 0.00 0.00 0.00 69 1012.7
20260901070046 75 133 0.0 0.0 0.00 0.00 0.00 69 1012.7
20260901065515 75 133 0.0 0.0 0.00 0.00 0.00 69 1012.6
20260901065058 75 133 0.0 0.0 0.00 0.00 0.00 69 1012.6
20260901064539 75 133 0.0 0.0 0.00 0.00 0.00 70 1012.7
20260901064020 75 133 0.0 0.0 0.00 0.00 0.00 68 1012.7
20260901063600 76 133 0.0 0.0 0.00 0.00 0.00 68 1012.7
20260901063040 76 133 0.0 0.0 0.00 0.00 0.00 68 1012.7
20260901062520 76 133 0.0 0.0 0.00 0.00 0.00 68 1012.8
20260901062106 76 133 0.0 0.0 0.00 0.00 0.00 69 1012.8
20260901061543 76 133 0.0 0.0 0.00 0.00 0.00 67 1012.8
20260901061022 76 133 0.0 0.0 0.00 0.00 0.00 67 1012.8
20260901060502 76 133 0.0 0.0 0.00 0.00 0.00 66 1012.7
20260901060046 76 133 0.0 0.0 0.00 0.00 0.00 66 1012.7
20260901055524 77 133 0.0 0.0 0.00 0.00 0.00 66 1012.6
20260901055003 77 133 0.0 0.0 0.00 0.00 0.00 65 1012.6
20260901054547 77 133 0.0 0.0 0.00 0.00 0.00 65 1012.5
20260901054027 77 133 0.0 0.0 0.00 0.00 0.00 65 1012.6
20260901053505 77 133 0.0 0.0 0.00 0.00 0.00 66 1012.6
20260901053052 77 133 0.0 0.0 0.00 0.00 0.00 65 1012.5
20260901052531 77 133 0.0 0.0 0.00 0.00 0.00 64 1012.6
20260901052013 77 133 0.0 0.0 0.00 0.00 0.00 64 1012.5
20260901051555 77 133 0.0 0.0 0.00 0.00 0.00 64 1012.5
20260901051032 77 133 0.0 0.0 0.00 0.00 0.00 63 1012.5
20260901050512 78 133 0.0 0.0 0.00 0.00 0.00 63 1012.5
20260901050054 78 133 0.0 0.0 0.00 0.00 0.00 63 1012.5
20260901045533 78 133 0.0 0.0 0.00 0.00 0.00 63 1012.5
20260901045013 78 133 0.0 0.0 0.00 0.00 0.00 63 1012.4
20260901044558 78 133 0.0 0.0 0.00 0.00 0.00 62 1012.4
20260901044036 78 133 0.0 0.0 0.00 0.00 0.00 63 1012.4
20260901043514 79 133 0.0 0.0 0.00 0.00 0.00 62 1012.4
20260901043054 79 133 0.0 0.0 0.00 0.00 0.00 62 1012.4
20260901042533 79 133 0.0 0.0 0.00 0.00 0.00 61 1012.4
20260901042013 79 133 0.0 0.0 0.00 0.00 0.00 61 1012.4
20260901041557 79 133 0.0 0.0 0.00 0.00 0.00 61 1012.4
20260901041036 80 133 0.0 0.0 0.00 0.00 0.00 61 1012.4
20260901040516 80 133 0.0 0.0 0.00 0.00 0.00 61 1012.3
20260901035541 80 133 0.0 0.0 0.00 0.00 0.00 60 1012.3
20260901035020 81 133 0.0 0.0 0.00 0.00 0.00 60 1012.3
20260901034602 81 133 0.0 0.0 0.00 0.00 0.00 59 1012.3
20260901034041 81 133 0.0 0.0 0.00 0.00 0.00 59 1012.3
20260901033521 81 133 0.0 0.0 0.00 0.00 0.00 59 1012.2
20260901033106 82 133 0.0 0.0 0.00 0.00 0.00 59 1012.2
20260901032545 82 133 0.0 0.0 0.00 0.00 0.00 59 1012.2
20260901032023 82 133 0.0 0.0 0.00 0.00 0.00 58 1012.1
20260901031502 83 133 0.0 0.0 0.00 0.00 0.00 58 1012.1
20260901031046 83 133 0.0 0.0 0.00 0.00 0.00 58 1012.1
20260901030525 83 133 0.0 0.0 0.00 0.00 0.00 56 1012.1
20260901030007 84 133 0.0 1.0 0.00 0.00 0.00 56 1012.0
20260901025549 84 133 0.0 1.0 0.00 0.00 0.00 56 1012.0
20260901025032 84 148 0.0 0.0 0.00 0.00 0.00 56 1012.0
20260901024508 84 148 0.0 0.0 0.00 0.00 0.00 55 1012.0
20260901024051 85 148 0.0 0.0 0.00 0.00 0.00 55 1012.0
20260901023531 85 148 0.0 0.0 0.00 0.00 0.00 54 1012.0
20260901023011 85 148 0.0 0.0 0.00 0.00 0.00 54 1011.9
20260901022554 85 148 0.0 0.0 0.00 0.00 0.00 53 1011.9
20260901022031 85 148 0.0 0.0 0.00 0.00 0.00 53 1011.9
20260901021512 86 148 0.0 0.0 0.00 0.00 0.00 53 1011.8
20260901021056 86 148 0.0 0.0 0.00 0.00 0.00 53 1011.7
20260901020533 86 148 0.0 0.0 0.00 0.00 0.00 53 1011.6
20260901020014 86 148 0.0 0.0 0.00 0.00 0.00 53 1011.5
20260901015556 86 148 0.0 1.0 0.00 0.00 0.00 53 1011.6
20260901015035 86 148 0.0 1.0 0.00 0.00 0.00 54 1011.5
20260901014514 87 148 0.0 0.0 0.00 0.00 0.00 54 1011.5
20260901014100 87 148 0.0 0.0 0.00 0.00 0.00 54 1011.4
20260901013537 87 148 0.0 0.0 0.00 0.00 0.00 54 1011.3
20260901013026 87 148 0.0 0.0 0.00 0.00 0.00 54 1011.3
20260901012504 87 148 0.0 0.0 0.00 0.00 0.00 53 1011.2
20260901012048 88 148 0.0 0.0 0.00 0.00 0.00 53 1011.2
20260901011526 88 148 0.0 0.0 0.00 0.00 0.00 54 1011.1
20260901011006 88 148 0.0 0.0 0.00 0.00 0.00 54 1011.1
20260901010549 89 148 0.0 0.0 0.00 0.00 0.00 53 1011.0
20260901010042 89 148 0.0 0.0 0.00 0.00 0.00 52 1011.0
20260901005506 89 148 0.0 0.0 0.00 0.00 0.00 52 1011.0
20260901005050 89 148 0.0 0.0 0.00 0.00 0.00 52 1011.0
20260901004528 90 148 0.0 0.0 0.00 0.00 0.00 52 1011.0
20260901004008 90 148 0.0 0.0 0.00 0.00 0.00 51 1010.9
20260901003551 90 148 0.0 0.0 0.00 0.00 0.00 50 1010.9
20260901003031 90 148 0.0 0.0 0.00 0.00 0.00 50 1010.8
20260901002511 91 148 0.0 0.0 0.00 0.00 0.00 49 1010.9
20260901002054 91 148 0.0 0.0 0.00 0.00 0.00 48 1010.9
20260901001534 91 148 0.0 0.0 0.00 0.00 0.00 47 1010.8
20260901001011 91 148 0.0 0.0 0.00 0.00 0.00 47 1010.8
20260901000556 91 148 0.0 0.0 0.00 0.00 0.00 47 1010.9
20260901000034 92 148 0.0 0.0 0.00 0.00 0.00 47 1010.9
20260831235517 92 148 0.0 0.0 0.00 0.00 0.00 46 1010.9
20260831235102 92 148 0.0 0.0 0.00 0.00 0.00 46 1010.9
20260831234540 93 148 0.0 0.0 0.00 0.00 0.00 46 1010.8
20260831234017 93 148 0.0 0.0 0.00 0.00 0.00 44 1010.8
20260831233601 94 148 0.0 0.0 0.00 0.00 0.00 44 1010.9
20260831233040 94 148 0.0 1.0 0.00 0.00 0.00 44 1010.9
20260831232522 94 148 0.0 1.0 0.00 0.00 0.00 42 1010.8
20260831232103 94 143 0.0 1.0 0.00 0.00 0.00 42 1010.8
20260831231544 95 125 0.0 1.0 0.00 0.00 0.00 41 1010.8
20260831231022 95 125 0.0 1.0 0.00 0.00 0.00 41 1010.8
20260831230604 95 125 0.0 1.0 0.00 0.00 0.00 40 1010.8
20260831230048 95 128 0.0 0.0 0.00 0.00 0.00 41 1010.9
20260831225523 95 128 0.0 1.0 0.00 0.00 0.00 40 1010.8